sat.trackr.live / text

‹ back to catalog

STARLINK-32910

NORAD 63089 · 2025-037N

PAYLOAD ACTIVE UNKNOWN

§ Identity

Operator
Country
US
Launch date
2025-02-23
Launch site
AFWTR
Launch vehicle
Mass (kg)
RCS (m²)

Purposes: comms

External: N2YO · Heavens-Above · Gunter

§ Orbital elements

Epoch: 2026-05-25T03:31:10.149600Z

Period
96.11 min
Inclination
70.0003°
Eccentricity
0.0003917
Mean motion
14.98348200 rev/d
Perigee alt
569.3 km
Apogee alt
574.7 km
Semi-major
6,950.1 km
B*
3.1373e-4
RAAN
161.7121°
Arg perigee
263.8488°
Mean anomaly
96.2225°
Rev number
7,005

§ Raw data

STARLINK-329101 63089U 25037N   26145.14664525  .00003654  00000+0  31373-3 0  99912 63089  70.0003 161.7121 0003917 263.8488  96.2225 14.98348200 70053

JSON: /api/v1/satellites/63089 · /tle

For live sub-satellite position, see the globe view (requires WebGL).

§ Visibility from observer

Set your observer location to see the next 7 days of passes ≥ 10°. The values pass through the URL so the page stays shareable.

No JS? Fill the form by hand. The geolocation button needs JavaScript.